Regional Weather Roundup
Issued by NWS

Home | Current Version | Previous Version | Graphics & Text | Print | Product List | Glossary On
Versions: 1 2 3 4 5 6 7 8 9 10 11 12 13 14 15 16 17 18 19 20 21 22 23 24 25 26 27 28 29 30 31 32 33 34 35 36 37 38 39 40 41 42 43 44 45 46 47 48 49 50
000
ASUS45 KTFX 031710
RWRMT
MONTANA REGIONAL WEATHER ROUNDUP
NATIONAL WEATHER SERVICE GREAT FALLS MT
1100 AM MDT THU SEP 03 2015

NOTE: "FAIR" INDICATES FEW OR NO CLOUDS BELOW 12000 FEET WITH NO
SIGNIFICANT WEATHER AND/OR OBSTRUCTIONS TO VISIBILITY.

MTZ001>007-043-031800-
WEST OF THE DIVIDE

CITY           SKY/WX    TMP DP  RH WIND       PRES   REMARKS
KALISPELL      CLOUDY    56  46  69 S13       29.94R
MISSOULA       LGT RAIN  50  48  93 NW8       29.99R
BUTTE          CLOUDY    51  38  60 NW9       29.96S
MULLAN PASS    CLOUDY    40  38  93 VRB5      29.99S
DEER LODGE       N/A     55  39  54 NW7       29.97F
EUREKA           N/A     48  45  87 NW7         N/A
HAMILTON         N/A     52  46  82 N8        29.96R
LIBBY            N/A     55  43  62 NW5       29.93F
$$

MTZ008-052>055-031800-
SOUTHWEST MONTANA

CITY           SKY/WX    TMP DP  RH WIND       PRES   REMARKS
BOZEMAN        MOSUNNY   66  41  40 E3        29.89S
DILLON           N/A    N/A N/A N/A MISG      29.91R
W YELLOWSTONE  MOSUNNY   68  32  26 SW17G25   29.99R
$$

MTZ009-010-012-014-046-048-049-054-031800-
EAST SLOPES AND CENTRAL MONTANA

CITY           SKY/WX    TMP DP  RH WIND       PRES   REMARKS
CUT BANK       CLOUDY    50  46  86 W8        29.96S
GREAT FALLS    LGT RAIN  56  40  55 NE13      29.93F
MALMSTROM AFB  LGT RAIN  59  41  51 NE15      29.93F
HELENA         CLOUDY    60  41  49 NW13      29.90F
CONRAD           N/A     51  50  97 CALM      29.99R
$$

MTZ011-013-016-021-045-047-050-051-031800-
NORTH CENTRAL MONTANA

CITY           SKY/WX    TMP DP  RH WIND       PRES   REMARKS
HAVRE          MOSUNNY   67  40  37 N5        29.93R
LEWISTOWN      SUNNY     63  37  38 CALM      29.93F
N BAR RANCH      N/A     64  36  34 VRB6      29.94F
CHINOOK          N/A     70  39  32 N6        29.91S
FORT BENTON      N/A     63  39  42 NW9       29.94S
$$

MTZ017>020-022>027-061-062-031800-
NORTHEAST MONTANA

CITY           SKY/WX    TMP DP  RH WIND       PRES   REMARKS
GLASGOW        MOSUNNY   68  43  40 N21       29.79F
JORDAN           N/A     73  39  29 N16       29.82F
SIDNEY         MOSUNNY   81  54  39 W16G22      N/A
WOLF POINT     MOSUNNY   80  40  23 N13       29.80S
PLENTYWOOD       N/A     75  45  33 NW20G26   29.78R
POPLAR           N/A     73  41  31 NW15      29.79S
$$

MTZ028>42-056>058-031800-
SOUTHCENTRAL AND SOUTHEAST MONTANA

CITY           SKY/WX    TMP DP  RH WIND       PRES   REMARKS
BAKER          PTSUNNY   75  47  36 W14G25    29.81R
BILLINGS       CLOUDY    68  36  30 NE12      29.88F
LIVINGSTON     SUNNY     68  38  33 E23G30    29.87S
MILES CITY     PTSUNNY   73  40  30 N12       29.80F
EKALAKA          N/A     72  41  32 W16       29.84R
FORSYTH          N/A     72  37  28 E6        29.80S
LAUREL           N/A     68  36  30 NE7       29.87F
$$

REGIONAL REPORTS...DAKOTAS

CITY           SKY/WX    TMP DP  RH WIND       PRES   REMARKS
WILLISTON      MOSUNNY   80  62  54 NE7       29.70R
MINOT          SUNNY     83  68  60 SE10      29.64F
DICKINSON      SUNNY     85  47  26 W7        29.70R
CROSBY           N/A     77  63  61 NE17      29.69F
BISMARCK       SUNNY     86  64  47 SE8       29.69F
GRAND FORKS    MOSUNNY   83  71  67 S17       29.75F
FARGO          SUNNY     85  71  63 SE20G30   29.78F HX  90
BUFFALO SD       N/A     83  46  27 W17       29.71S
RAPID CITY     MOSUNNY   88  60  38 E6        29.79F
$$

REGIONAL REPORTS...WYOMING/IDAHO/WASHINGTON

CITY           SKY/WX    TMP DP  RH WIND       PRES   REMARKS
GILLETTE       MOSUNNY   82  41  23 N9        29.89R
SHERIDAN       PTSUNNY   72  35  25 N8        29.88F
BUFFALO WY     PTSUNNY   72  37  28 CALM      29.94F
CODY           CLOUDY    63  39  42 N5        29.92F
YELLOWSTONE LA   N/A     63  39  41 W8        30.09S
IDAHO FALLS    MOSUNNY   68  41  37 S15       29.93S
SALMON         CLOUDY    61  43  51 N5        29.88R
BOISE          PTSUNNY   64  42  44 NW20      29.91F
SPOKANE        MOSUNNY   55  38  52 SE5       29.96R
$$

REGIONAL REPORTS...ALBERTA

CITY           SKY/WX    TMP DP  RH WIND       PRES   REMARKS
EDMONTON       CLOUDY    50  39  66 NW7       29.95S
CALGARY        MOSUNNY   52  37  58 NE6       29.95F
LETHBRIDGE     LGT RAIN  52  41  66 SW3       29.95R
MEDICINE HAT   LGT RAIN  54  50  87 W6        29.95R
WATERTON GATE    N/A     48  41  76 NW2         N/A
CARDSTON         N/A     48  43  81 NW1         N/A
MILK RIVER       N/A     52  50  93 S6          N/A
$$

REGIONAL REPORTS...SASKATCHEWAN

CITY           SKY/WX    TMP DP  RH WIND       PRES   REMARKS
SWIFT CURRENT  SUNNY     63  41  45 NW12G17   29.92S
REGINA         MOSUNNY   68  50  52 N21G28    29.84R
SASKATOON      CLOUDY    59  45  58 W8        29.90R
CYPRESS HILLS    N/A     54  37  54 NW3         N/A
VAL MARIE        N/A     64  41  42 N9          N/A
ROCKGLEN         N/A     63  46  55 NW17G23     N/A
$$



USA.gov is the U.S. government's official web portal to all federal, state and local government web resources and services.